Погода Лиепая

Погода Лиепая : погода сейчас, прогноз погоды и архив. Всё, что Вы хотите узнать о погоде Лиепая!

Поиск расширенной информации на нашем сайте:

Другие новости

Новости СМИ2

Главная страница сайта

Новости сайта

02.10.2013

Напоминаем, что на нашем новом сайте вы можете получить высокодетализированные прогнозы погоды по пунктам России, СНГ и мира (включающие важные для авиации метеовеличины, такие как направление и скорость ветра, видимость, явления погоды, количество и форма облачности, нижняя и верхняя граница облачности), а также ознакомиться с разнообразными материалами по авиационной метеорологии и подборкой полезных ссылок на эту тему.

Сайт Метеоцентр.Азия посвящён разработке технологий оптимизации авиаметеорологического обслуживания, включая проектирование и перспективное создание нескольких автоматизированных авиаметеорологических систем:
- система выпуска высокодетальных прогностических карт явлений погоды для нижнего воздушного пространства по России и ближнему зарубежью;
- система верификации прогнозов TAF (выпускаемых синоптиками официальных АМСГ РФ и ближнего зарубежья) и AUTOTAF (выпускаемых сайтом Метеоцентр.Азия) - выявление ошибок, онлайн-сопоставление с фактической погодой METAR, автоматическое внесение коррективов в прогнозы при резком отклонении фактической погоды от прогноза, подсчёт оправдываемости прогнозов по элементам и в целом;
- система обработки, анализа и отображения авиаметеорологической информации для применения провайдерами метеорологической информации.


Погода Лиепая - сегодня

Время (UTC), дата Ветер
(°,м/с) 
Видим.   Явления Облачность Т
(°С)
Тd
(°С)
f(%) Тe
(°С)
Pmin
(гПа)
dP
(гПа)
Po
(мм)
O2
(г/м3)
Тmin Tmax R s Состояние
почвы
09 22.03.17 230 (ЮЗ) 7-10{11}  10 км    3/3 600 м 
[Sc]
+5.2 +2.6 83 +2  1012.5  1.9  759  299           
12 22.03.17 230 (ЮЗ) 7-11{12}  10 км    3/3 600 м 
[Sc]
+5.5 +2.9 83 +3  1014.2  1.7  760  300           
15 22.03.17 230 (ЮЗ) 6-11{12}  10 км    1/1 1000 м 
[Sc]
+4.9 +2.4 84 +2  1015.4  1.2  761  300           
18 22.03.17 220 (ЮЗ) 4{12}  10 км    ясно 
+3.5 +2.4 92 +2  1017.4  762  302    +5.7       
21 22.03.17 220 (ЮЗ) 10 км    ясно 
+3.6 +2.4 92 +2  1019  1.6  764  303           
00 23.03.17 220 (ЮЗ) 10 км    ясно 
+3.3 +2.4 94 +2  1020.6  1.6  765  304           
03 23.03.17 230 (ЮЗ) 10 км    3/0 средняя 
[Ac trans]
+3.4 +2.6 94 +2  1021.7  1.1  766  304           
06 23.03.17 230 (ЮЗ) 10 км    1/0 верхняя 
[Ci sp]
+4.2 +2.6 89 +3  1023.1  1.4  767  303  +3.2         
09 23.03.17 230 (ЮЗ) 10 км    1/0 верхняя 
[Ci fib]
+5.3 +3.4 88 +4  1024.6  1.5  768  302           
12 23.03.17 230 (ЮЗ) 20000 м    6/0 верхняя 
[Ci sp]
+5.9 +3.3 83 +5  1024.9  0.3  768  303           
15 23.03.17 220 (ЮЗ) 20000 м    9/0 верхняя 
[Cs]
+5 +3.1 87 +4  1024.4  -0.5  768  303           
18 23.03.17 230 (ЮЗ) 10 км    10/0 верхняя 
[Ci sp]
+3.4 +2.6 94 +4  1024  -0.4  767  304    +6.4       
21 23.03.17 210 (ЮЗ) 10 км    10/0 верхняя 
[Cs]
+2.6 +2 96 +2  1024.2  0.2  767  305           
00 24.03.17 260 (З) 10 км    ясно 
+2.5 +1.9 96 +3  1023.8  -0.4  767  306           
03 24.03.17 290 (З) 4000 м  дымка  ясно 
-2 -2.1 99 -1  1024.1  0.3  767  311           
06 24.03.17 310 (СЗ) 10 км    1/0 верхняя 
[Ci fib]
+3.3 +0.5 82 +2  1025.2  1.1  768  305  -2         
09 24.03.17 300 (СЗ) 10 км    ясно 
+5.8 -0.6 63 +5  1026.8  1.6  769  303           
12 24.03.17 280 (З) 20000 м    3/3 600 м 
[Cu hum]
+5.5 -2 58 +4  1027.5  0.7  770  304           
15 24.03.17 250 (З) 20000 м    4/3 600 м средняя, верхняя 
[Cu hum|Ac trans|Ci fib]
+4.7 +1.3 79 +4  1026.8  -0.7  769  304           
18 24.03.17 260 (З) 10 км    1/0 верхняя 
[Ci fib]
+2.8 +0.8 87 +1  1026.7  -0.1  769  306    +6.3       
21 24.03.17 230 (ЮЗ) 10 км    6/0 верхняя 
[Ci sp]
+3.3 +0.6 82 +3  1025.2  -1.5  768  305           
00 25.03.17 200 (Ю) 10 км    10/0 средняя 
[Ac und]
+3.5 +1.9 89 +2  1023.1  -2.1  767  305           
03 25.03.17 260 (З) 10 км  {ливн. осадки}  8/4 600 м кучево-дожд., средняя 
[Cb calv|Ac trans]
+4 +0.8 80 +3  1021.2  -1.9  765  303           
06 25.03.17 280 (З) 10 км  {ливн. осадки}  8/3 600 м средняя 
[Sc|Ac trans]
+3.7 +1.7 87 +2  1019.4  -1.8  764  303  +2.5    0.0     
09 25.03.17 300 (СЗ) 10 км  {ливн. осадки}  9/3 600 м кучево-дожд., средняя, верхняя 
[Cb calv|Ac trans|Ci sp]
+4.5 +2.3 86 +2  1018.5  -0.9  763  301           
Время (UTC), дата Ветер
(°,м/с) 
Видим.   Явления Облачность Т
(°С)
Тd
(°С)
f(%) Тe
(°С)
Pmin
(гПа)
dP
(гПа)
Po
(мм)
O2
(г/м3)
Тmin Tmax R s Состояние
почвы

Для получения пояснительной информации подведите курсор к названию столбца.

ПОГОДА Лиепая - архив

Всё, что Вы хотите узнать о погоде Лиепая - удобно и подробно!

Выберите нужную дату (начиная с 1 января 2015* года) и нажмите кнопку "Найти".
Будут отображены архивные сводки погоды по пункту Лиепая, начиная с указанной даты.


Отображать данные в формате CSV (для использования в таблицах Excel)


Внимание! Наш архив погоды предназначен исключительно для личного некоммерческого использования в познавательных целях. Если Вам необходимы официальные справки о состоянии погоды (для производственных, юридических, коммерческих и т.п. целей), обращайтесь в органы Росгидромета.

*Примечание: данная дата относится к архиву по метеостанциям СССР (Россия, СНГ, Балтия).
Архив по метеостанциям Зарубежной Европы и Азии (кроме Китая) хранится 10 дней, по другим регионам земного шара (Китай, Африка, Америка, Австралия, Океания) - 1 день.

Лиепая - район местоположения метеостанции


Название, широта, долгота, высота метеостанции:
Лиепая 56.5°ш. 21°д. 7 м над ур. моря [Латвия]

Дополнительная информация

В oтличие oт бoльшинства пoгoдных сайтoв мы публикуем пoдрoбную метеoинфoрмацию в детальнoм прoфессиoнальнoм фoрмате.

Характеристики температуры и влажнoсти вoздуха измеряются на высoте 2 м в тени вдали oт зданий и деревьев.
Скoрoсть ветра измеряется на высoте 10 м (на урoвне рoста челoвека скoрoсть ветра ниже в 1.5-2 раза). Если метеoстанция нахoдится в гoрoде или в лесу, тo скoрoсть ветра занижена на 2-4 м/с пo сравнению с oткрытым местoм. Скoрoсть ветра над акватoриями крупных рек и oзёр, а также на вершинах хoлмoв на 2-5 м/с выше, чем в oбычных услoвиях.
Атмoсфернoе давление в разных тoчках местнoсти мoжет значительнo oтличаться oт давления на метеoстанции, в зависимoсти oт услoвий рельефа (при пoдъёме на 10 м давление пoнижается примернo на 1 мм рт.ст.).